Location: Asheville, NC
(35.6000°N, 82.5500°W)
Time: 09:23:14

STARS - Pass Details

Date: 14 March 2018
Orbit: 625 x 641 km, 98.3° (Epoch: 19 March)

Event Time Altitude Azimuth Distance (km) Brightness Sun altitude
Rises 20:27:18 0° 0° (N) 2,927 ? -11.0°
Reaches altitude 10° 20:29:42 10° 350° (N) 2,013 ? -11.5°
Maximum altitude 20:33:31 30° 289° (WNW) 1,124 ? -12.3°
Drops below altitude 10° 20:37:18 10° 228° (SW) 1,994 ? -13.1°
Sets 20:39:41 0° 218° (SW) 2,895 ? -13.5°
